AXM185 WMKK-VRMM

Flight info

Callsign AXM185
Flight time N/A
Altitude 34000
Route PUGER1D PUGER R461 ISVUR P756 VIPIG/N0454F360 P756 TENIV TENIV1A
Aircraft A320/M-SDE3FGHIRWY/LB1

Departure

Time N/A
Airport Kuala Lumpur International Airport (WMKK)

Arrival

Time 2026-04-27 18:35
Airport Velana International Airport (VRMM)
Time Latitude Longitude Altitude Speed Heading
2026-04-27 15:05 3.42169 99.94329 29231 ft 473 kts 274°
2026-04-27 15:05 3.42375 99.91046 29416 ft 474 kts 274°
2026-04-27 15:05 3.42584 99.87744 29598 ft 476 kts 274°
2026-04-27 15:05 3.42791 99.84481 29776 ft 477 kts 274°
2026-04-27 15:06 3.42996 99.81182 29949 ft 478 kts 274°
2026-04-27 15:06 3.43199 99.77868 30094 ft 479 kts 274°
2026-04-27 15:06 3.43405 99.74545 30298 ft 478 kts 274°
2026-04-27 15:06 3.43614 99.71237 30524 ft 477 kts 274°
2026-04-27 15:07 3.43824 99.67932 30722 ft 476 kts 274°
2026-04-27 15:07 3.44030 99.64624 30905 ft 476 kts 274°
2026-04-27 15:07 3.44164 99.62436 31043 ft 476 kts 274°
2026-04-27 15:07 3.44366 99.59125 31256 ft 475 kts 274°
2026-04-27 15:08 3.44571 99.55818 31462 ft 474 kts 274°
2026-04-27 15:08 3.44847 99.51452 31725 ft 474 kts 274°
2026-04-27 15:08 3.44986 99.49220 31846 ft 474 kts 274°
2026-04-27 15:08 3.45189 99.45929 32068 ft 473 kts 274°
2026-04-27 15:09 3.45390 99.42680 32283 ft 473 kts 274°
2026-04-27 15:09 3.45594 99.39398 32484 ft 472 kts 274°
2026-04-27 15:09 3.45801 99.36117 32682 ft 472 kts 274°
2026-04-27 15:09 3.46008 99.32833 32882 ft 472 kts 274°
2026-04-27 15:10 3.46211 99.29562 33100 ft 471 kts 274°
2026-04-27 15:10 3.46411 99.26288 33309 ft 471 kts 274°
2026-04-27 15:10 3.46610 99.23020 33506 ft 470 kts 274°
2026-04-27 15:10 3.46812 99.19753 33721 ft 470 kts 274°
2026-04-27 15:11 3.47013 99.16488 33845 ft 469 kts 274°
2026-04-27 15:11 3.47213 99.13249 33870 ft 465 kts 274°
2026-04-27 15:11 3.47604 99.06833 33871 ft 463 kts 274°
2026-04-27 15:12 3.48001 99.00393 33871 ft 463 kts 274°
2026-04-27 15:12 3.48408 98.93948 33874 ft 463 kts 274°
2026-04-27 15:13 3.48808 98.87517 33873 ft 463 kts 274°
2026-04-27 15:13 3.49204 98.81100 33873 ft 463 kts 274°
2026-04-27 15:14 3.49600 98.74655 33875 ft 463 kts 274°
2026-04-27 15:14 3.49991 98.68254 33874 ft 463 kts 274°
2026-04-27 15:15 3.50377 98.61818 33878 ft 463 kts 272°
2026-04-27 15:15 3.50116 98.55379 33876 ft 463 kts 266°
2026-04-27 15:16 3.49708 98.48937 33883 ft 463 kts 266°
2026-04-27 15:16 3.49303 98.42531 33883 ft 463 kts 266°
2026-04-27 15:17 3.48905 98.36090 33883 ft 463 kts 266°
2026-04-27 15:17 3.48500 98.29647 33897 ft 463 kts 267°
2026-04-27 15:18 3.48101 98.23203 33897 ft 464 kts 267°
2026-04-27 15:18 3.47700 98.16763 33925 ft 464 kts 267°
2026-04-27 15:19 3.47297 98.10317 33934 ft 464 kts 267°
2026-04-27 15:19 3.46895 98.03895 33956 ft 464 kts 267°
2026-04-27 15:20 3.46490 97.97439 33958 ft 464 kts 266°
2026-04-27 15:20 3.46082 97.91023 33955 ft 464 kts 266°
2026-04-27 15:21 3.45671 97.84575 33976 ft 464 kts 267°
2026-04-27 15:21 3.45263 97.78124 33977 ft 464 kts 267°
2026-04-27 15:22 3.44859 97.71670 33990 ft 464 kts 267°
2026-04-27 15:22 3.44459 97.65220 33990 ft 464 kts 267°
2026-04-27 15:23 3.44046 97.58794 33991 ft 464 kts 266°
2026-04-27 15:23 3.43637 97.52370 33996 ft 464 kts 267°
2026-04-27 15:24 3.43245 97.45916 33998 ft 463 kts 268°
2026-04-27 15:24 3.42856 97.39474 33998 ft 463 kts 267°
2026-04-27 15:25 3.42447 97.33041 33990 ft 463 kts 267°
2026-04-27 15:25 3.42040 97.26603 33972 ft 463 kts 267°
2026-04-27 15:26 3.41642 97.20207 33973 ft 463 kts 267°
2026-04-27 15:26 3.41235 97.13770 33944 ft 463 kts 267°
2026-04-27 15:27 3.40831 97.07335 33944 ft 463 kts 267°
2026-04-27 15:27 3.40431 97.00936 33936 ft 464 kts 267°
2026-04-27 15:28 3.40019 96.94459 33904 ft 464 kts 267°
2026-04-27 15:28 3.39612 96.87994 33905 ft 465 kts 267°
2026-04-27 15:29 3.39210 96.81567 33890 ft 465 kts 267°
2026-04-27 15:29 3.38802 96.75102 33896 ft 465 kts 267°
2026-04-27 15:30 3.38394 96.68632 33888 ft 465 kts 267°
2026-04-27 15:30 3.37985 96.62170 33889 ft 465 kts 267°
2026-04-27 15:31 3.37579 96.55738 33893 ft 465 kts 267°
2026-04-27 15:31 3.37174 96.49269 33892 ft 465 kts 267°
2026-04-27 15:32 3.36763 96.42814 33888 ft 465 kts 267°
2026-04-27 15:32 3.36351 96.36385 33885 ft 465 kts 267°
2026-04-27 15:33 3.35939 96.29907 33888 ft 466 kts 267°
2026-04-27 15:33 3.35528 96.23434 33892 ft 466 kts 267°
2026-04-27 15:34 3.35115 96.16956 33893 ft 466 kts 267°
2026-04-27 15:34 3.34699 96.10480 33895 ft 466 kts 267°
2026-04-27 15:35 3.34288 96.04035 33897 ft 466 kts 267°
2026-04-27 15:35 3.33877 95.97558 33897 ft 466 kts 267°
2026-04-27 15:36 3.33469 95.91114 33896 ft 466 kts 267°
2026-04-27 15:36 3.33050 95.84646 33894 ft 465 kts 267°
2026-04-27 15:37 3.32629 95.78186 33891 ft 465 kts 267°
2026-04-27 15:37 3.32210 95.71711 33889 ft 465 kts 267°
2026-04-27 15:38 3.31802 95.65238 33878 ft 466 kts 267°
2026-04-27 15:38 3.31396 95.58793 33877 ft 467 kts 267°
2026-04-27 15:39 3.30985 95.52300 33882 ft 467 kts 267°
2026-04-27 15:39 3.30557 95.45804 33885 ft 468 kts 267°
2026-04-27 15:40 3.30136 95.39311 33888 ft 468 kts 267°
2026-04-27 15:40 3.29721 95.32844 33892 ft 468 kts 267°
2026-04-27 15:41 3.29308 95.26345 33887 ft 468 kts 267°
2026-04-27 15:41 3.28884 95.19835 33886 ft 469 kts 267°
2026-04-27 15:42 3.28453 95.13326 33884 ft 469 kts 267°
2026-04-27 15:42 3.28026 95.06807 33885 ft 469 kts 267°
2026-04-27 15:43 3.27608 95.00330 33887 ft 469 kts 267°
2026-04-27 15:43 3.27183 94.93801 33890 ft 469 kts 267°
2026-04-27 15:44 3.26755 94.87270 33896 ft 469 kts 267°
2026-04-27 15:44 3.26324 94.80794 33897 ft 469 kts 266°
2026-04-27 15:45 3.25832 94.74275 33898 ft 469 kts 266°
2026-04-27 15:45 3.25331 94.67758 33899 ft 469 kts 266°
2026-04-27 15:46 3.24832 94.61236 33902 ft 469 kts 266°
2026-04-27 15:46 3.24344 94.54756 33903 ft 469 kts 266°
2026-04-27 15:47 3.23853 94.48233 33903 ft 469 kts 266°
2026-04-27 15:47 3.23362 94.41710 33903 ft 469 kts 266°
2026-04-27 15:48 3.22871 94.35236 33901 ft 469 kts 266°
2026-04-27 15:49 3.22133 94.25459 33901 ft 469 kts 266°
2026-04-27 15:49 3.21646 94.18983 33902 ft 469 kts 266°
2026-04-27 15:50 3.21153 94.12466 33904 ft 469 kts 266°
2026-04-27 15:50 3.20656 94.05946 33905 ft 469 kts 266°
2026-04-27 15:51 3.20158 93.99468 33905 ft 469 kts 266°
2026-04-27 15:51 3.19666 93.92953 33906 ft 469 kts 266°
2026-04-27 15:52 3.19167 93.86428 33904 ft 469 kts 266°
2026-04-27 15:52 3.18673 93.79911 33905 ft 469 kts 266°
2026-04-27 15:53 3.18191 93.73426 33903 ft 469 kts 266°
2026-04-27 15:53 3.17690 93.66912 33904 ft 469 kts 266°
2026-04-27 15:54 3.17194 93.60421 33904 ft 469 kts 266°
2026-04-27 15:54 3.16699 93.53902 33905 ft 469 kts 266°
2026-04-27 15:55 3.16204 93.47379 33907 ft 469 kts 266°
2026-04-27 15:55 3.15706 93.40898 33907 ft 469 kts 266°
2026-04-27 15:56 3.15210 93.34391 33907 ft 469 kts 266°
2026-04-27 15:56 3.14714 93.27973 33907 ft 469 kts 266°
2026-04-27 15:57 3.14300 93.22603 33627 ft 473 kts 266°
2026-04-27 15:57 3.13792 93.16172 33698 ft 468 kts 266°
2026-04-27 15:58 3.13624 93.13984 33699 ft 468 kts 266°
2026-04-27 15:58 3.13133 93.07493 33697 ft 468 kts 266°
2026-04-27 15:59 3.12634 93.00995 33874 ft 468 kts 266°
2026-04-27 15:59 3.12147 92.94552 33892 ft 468 kts 266°
2026-04-27 16:00 3.11653 92.88065 33893 ft 468 kts 266°
2026-04-27 16:00 3.11151 92.81573 33896 ft 468 kts 266°
2026-04-27 16:01 3.10653 92.75208 33892 ft 467 kts 266°
2026-04-27 16:01 3.10146 92.68714 33892 ft 468 kts 266°
2026-04-27 16:02 3.09650 92.62247 33892 ft 466 kts 266°
2026-04-27 16:02 3.09162 92.55822 33893 ft 465 kts 266°
2026-04-27 16:03 3.08662 92.49355 33893 ft 465 kts 266°
2026-04-27 16:03 3.08159 92.42902 33893 ft 465 kts 266°
2026-04-27 16:04 3.07664 92.36478 33893 ft 465 kts 266°
2026-04-27 16:04 3.07168 92.30042 33893 ft 465 kts 266°
2026-04-27 16:05 3.06663 92.23589 33903 ft 464 kts 265°
2026-04-27 16:05 3.06157 92.17172 33908 ft 463 kts 265°
2026-04-27 16:06 3.05666 92.10776 33907 ft 462 kts 265°
2026-04-27 16:06 3.05170 92.04371 33903 ft 461 kts 265°
2026-04-27 16:07 3.04953 91.97958 33894 ft 462 kts 273°
2026-04-27 16:07 3.05370 91.91529 33892 ft 462 kts 274°
2026-04-27 16:08 3.05787 91.85141 33890 ft 462 kts 273°
2026-04-27 16:08 3.06200 91.78716 33891 ft 462 kts 273°
2026-04-27 16:09 3.06615 91.72282 33892 ft 462 kts 273°
2026-04-27 16:09 3.07230 91.62677 33891 ft 462 kts 273°
2026-04-27 16:10 3.08057 91.49840 33885 ft 462 kts 273°
2026-04-27 16:11 3.08672 91.40227 33879 ft 463 kts 273°
2026-04-27 16:12 3.09286 91.30575 33885 ft 463 kts 273°
2026-04-27 16:13 3.09907 91.20928 33891 ft 464 kts 273°
2026-04-27 16:13 3.10517 91.11304 33891 ft 464 kts 273°
2026-04-27 16:14 3.11332 90.98470 33885 ft 465 kts 273°
2026-04-27 16:15 3.12162 90.85538 33888 ft 466 kts 273°
2026-04-27 16:16 3.12975 90.72586 33899 ft 466 kts 272°
2026-04-27 16:17 3.13787 90.59649 33907 ft 466 kts 272°
2026-04-27 16:18 3.14604 90.46765 33907 ft 465 kts 272°
2026-04-27 16:19 3.15023 90.40301 33904 ft 465 kts 272°
2026-04-27 16:20 3.15820 90.27384 33907 ft 465 kts 272°
2026-04-27 16:21 3.16427 90.17707 33906 ft 464 kts 272°
2026-04-27 16:22 3.17234 90.04802 33904 ft 464 kts 272°
2026-04-27 16:22 3.17841 89.95154 33907 ft 464 kts 272°
2026-04-27 16:23 3.18449 89.85490 33900 ft 464 kts 272°
2026-04-27 16:24 3.18849 89.79045 33899 ft 464 kts 272°
2026-04-27 16:25 3.19658 89.66153 33894 ft 464 kts 272°
2026-04-27 16:26 3.20452 89.53302 33896 ft 464 kts 272°
2026-04-27 16:27 3.21259 89.40407 33896 ft 464 kts 272°
2026-04-27 16:28 3.22244 89.24311 33896 ft 463 kts 272°
2026-04-27 16:29 3.23245 89.08217 33895 ft 463 kts 273°
2026-04-27 16:30 3.24031 88.95375 33893 ft 463 kts 273°
2026-04-27 16:31 3.25024 88.79288 33894 ft 463 kts 273°
2026-04-27 16:32 3.25610 88.69635 33896 ft 463 kts 273°
2026-04-27 16:33 3.26199 88.60037 33896 ft 463 kts 273°
2026-04-27 16:33 3.26596 88.53564 33896 ft 463 kts 273°
2026-04-27 16:34 3.26987 88.47137 33896 ft 463 kts 273°
2026-04-27 16:34 3.27378 88.40746 33895 ft 463 kts 274°
2026-04-27 16:35 3.27769 88.34274 33892 ft 463 kts 273°
2026-04-27 16:36 3.28360 88.24659 33895 ft 463 kts 274°
2026-04-27 16:36 3.28753 88.18219 33897 ft 463 kts 273°
2026-04-27 16:37 3.29139 88.11770 33901 ft 463 kts 273°
2026-04-27 16:37 3.29524 88.05334 33907 ft 463 kts 273°
2026-04-27 16:38 3.29914 87.98898 33906 ft 463 kts 274°
2026-04-27 16:38 3.30308 87.92462 33908 ft 463 kts 273°
2026-04-27 16:39 3.30691 87.86034 33909 ft 463 kts 274°
2026-04-27 16:39 3.31081 87.79637 33909 ft 463 kts 274°
2026-04-27 16:40 3.31470 87.73196 33910 ft 463 kts 273°
2026-04-27 16:40 3.31858 87.66767 33914 ft 463 kts 273°
2026-04-27 16:41 3.32245 87.60331 33915 ft 463 kts 273°
2026-04-27 16:41 3.32629 87.53888 33917 ft 464 kts 273°
2026-04-27 16:42 3.33012 87.47435 33918 ft 463 kts 273°
2026-04-27 16:42 3.33400 87.41037 33918 ft 463 kts 273°
2026-04-27 16:43 3.33789 87.34601 33917 ft 463 kts 273°
2026-04-27 16:43 3.34105 87.29210 33912 ft 463 kts 273°
2026-04-27 16:44 3.34491 87.22781 33908 ft 463 kts 273°
2026-04-27 16:44 3.34877 87.16384 33906 ft 463 kts 273°
2026-04-27 16:45 3.35258 87.09946 33906 ft 463 kts 273°
2026-04-27 16:45 3.35642 87.03508 33907 ft 464 kts 273°
2026-04-27 16:46 3.36020 86.97067 33908 ft 464 kts 273°
2026-04-27 16:46 3.36398 86.90629 33911 ft 463 kts 273°
2026-04-27 16:47 3.36782 86.84192 33910 ft 463 kts 273°
2026-04-27 16:47 3.37161 86.77750 33910 ft 463 kts 273°
2026-04-27 16:48 3.37538 86.71336 33908 ft 463 kts 273°
2026-04-27 16:48 3.37917 86.64897 33909 ft 463 kts 273°
2026-04-27 16:49 3.38491 86.55242 33910 ft 463 kts 273°
2026-04-27 16:49 3.38874 86.48799 33905 ft 464 kts 273°
2026-04-27 16:50 3.39246 86.42358 33903 ft 464 kts 273°
2026-04-27 16:50 3.39622 86.35907 33902 ft 464 kts 273°
2026-04-27 16:51 3.40006 86.29447 33905 ft 464 kts 273°
2026-04-27 16:51 3.40382 86.23039 33905 ft 464 kts 273°
2026-04-27 16:52 3.40761 86.16593 33911 ft 464 kts 273°
2026-04-27 16:52 3.41141 86.10143 33910 ft 464 kts 273°
2026-04-27 16:53 3.41523 86.03688 33906 ft 464 kts 273°
2026-04-27 16:53 3.41891 85.97247 33903 ft 464 kts 273°
2026-04-27 16:54 3.42264 85.90796 33908 ft 464 kts 273°
2026-04-27 16:54 3.42645 85.84386 33901 ft 464 kts 273°
2026-04-27 16:55 3.43017 85.77943 33903 ft 464 kts 273°
2026-04-27 16:55 3.43388 85.71462 33904 ft 463 kts 273°
2026-04-27 16:56 3.43759 85.65057 33904 ft 463 kts 273°
2026-04-27 16:56 3.44134 85.58601 33902 ft 463 kts 273°
2026-04-27 16:57 3.44506 85.52161 33901 ft 463 kts 273°
2026-04-27 16:57 3.44885 85.45729 33901 ft 463 kts 273°
2026-04-27 16:58 3.45265 85.39286 33905 ft 463 kts 273°
2026-04-27 16:58 3.45656 85.32867 33912 ft 462 kts 274°
2026-04-27 16:59 3.46043 85.26444 33913 ft 461 kts 273°
2026-04-27 16:59 3.46418 85.20075 33911 ft 461 kts 273°
2026-04-27 17:00 3.46978 85.10469 33908 ft 461 kts 273°
2026-04-27 17:01 3.47347 85.04065 33903 ft 460 kts 273°
2026-04-27 17:01 3.47722 84.97662 33896 ft 461 kts 273°
2026-04-27 17:02 3.48098 84.91258 33893 ft 461 kts 273°
2026-04-27 17:02 3.48474 84.84845 33894 ft 462 kts 273°
2026-04-27 17:03 3.48846 84.78464 33897 ft 462 kts 273°
2026-04-27 17:03 3.49223 84.72039 33900 ft 462 kts 273°
2026-04-27 17:04 3.49604 84.65612 33899 ft 463 kts 273°
2026-04-27 17:04 3.49980 84.59178 33894 ft 463 kts 273°
2026-04-27 17:05 3.50351 84.52719 33889 ft 464 kts 273°
2026-04-27 17:05 3.50718 84.46271 33890 ft 464 kts 273°
2026-04-27 17:06 3.51094 84.39867 33891 ft 464 kts 273°
2026-04-27 17:06 3.51464 84.33415 33890 ft 464 kts 273°
2026-04-27 17:07 3.51839 84.26948 33896 ft 465 kts 273°
2026-04-27 17:07 3.52216 84.20491 33895 ft 465 kts 273°
2026-04-27 17:08 3.52593 84.14019 33897 ft 465 kts 273°
2026-04-27 17:08 3.52965 84.07597 33898 ft 465 kts 273°
2026-04-27 17:09 3.53330 84.01134 33897 ft 465 kts 273°
2026-04-27 17:09 3.53684 83.94663 33898 ft 465 kts 273°
2026-04-27 17:10 3.54038 83.88194 33901 ft 465 kts 273°
2026-04-27 17:10 3.54384 83.81727 33908 ft 465 kts 273°
2026-04-27 17:11 3.54732 83.75272 33911 ft 464 kts 273°
2026-04-27 17:11 3.55264 83.65595 33910 ft 464 kts 273°
2026-04-27 17:12 3.55801 83.55929 33908 ft 463 kts 273°
2026-04-27 17:13 3.56146 83.49493 33910 ft 462 kts 273°
2026-04-27 17:13 3.56485 83.43111 33911 ft 461 kts 273°
2026-04-27 17:14 3.56830 83.36704 33909 ft 460 kts 273°
2026-04-27 17:14 3.57183 83.30310 33901 ft 460 kts 273°
2026-04-27 17:15 3.57526 83.23920 33898 ft 459 kts 273°
2026-04-27 17:15 3.57863 83.17532 33893 ft 459 kts 273°
2026-04-27 17:16 3.58214 83.11151 33892 ft 459 kts 273°
2026-04-27 17:16 3.58559 83.04774 33892 ft 459 kts 273°
2026-04-27 17:17 3.58911 82.98388 33889 ft 459 kts 273°
2026-04-27 17:17 3.59260 82.92010 33888 ft 459 kts 273°
2026-04-27 17:18 3.59779 82.82480 33882 ft 459 kts 273°
2026-04-27 17:18 3.60127 82.76093 33886 ft 459 kts 273°
2026-04-27 17:19 3.60465 82.69721 33890 ft 458 kts 273°
2026-04-27 17:19 3.60818 82.63355 33892 ft 457 kts 273°
2026-04-27 17:20 3.61166 82.56996 33892 ft 457 kts 273°
2026-04-27 17:20 3.61513 82.50641 33891 ft 457 kts 273°
2026-04-27 17:21 3.61853 82.44282 33887 ft 457 kts 273°
2026-04-27 17:21 3.62193 82.37971 33889 ft 457 kts 273°
2026-04-27 17:22 3.62541 82.31607 33886 ft 457 kts 273°
2026-04-27 17:22 3.62886 82.25248 33886 ft 457 kts 273°
2026-04-27 17:23 3.63229 82.18877 33886 ft 457 kts 273°
2026-04-27 17:23 3.63573 82.12526 33884 ft 457 kts 273°
2026-04-27 17:24 3.63916 82.06107 33888 ft 467 kts 273°
2026-04-27 17:24 3.64267 81.99537 33888 ft 478 kts 273°
2026-04-27 17:25 3.64625 81.92881 33888 ft 485 kts 273°
2026-04-27 17:25 3.64987 81.86087 33888 ft 490 kts 273°
2026-04-27 17:26 3.65357 81.79254 33887 ft 493 kts 273°
2026-04-27 17:26 3.65723 81.72418 33887 ft 493 kts 273°
2026-04-27 17:27 3.66090 81.65545 33886 ft 494 kts 273°
2026-04-27 17:27 3.66457 81.58680 33889 ft 494 kts 273°
2026-04-27 17:28 3.66823 81.51816 33891 ft 494 kts 273°
2026-04-27 17:29 3.67373 81.41509 33898 ft 495 kts 273°
2026-04-27 17:29 3.67675 81.35768 33900 ft 495 kts 273°
2026-04-27 17:30 3.68039 81.28887 33901 ft 495 kts 273°
2026-04-27 17:30 3.68576 81.18554 33901 ft 496 kts 272°
2026-04-27 17:31 3.68935 81.11688 33902 ft 497 kts 272°
2026-04-27 17:31 3.69300 81.04787 33903 ft 497 kts 273°
2026-04-27 17:32 3.69854 80.94423 33903 ft 497 kts 273°
2026-04-27 17:33 3.70222 80.87512 33898 ft 497 kts 272°
2026-04-27 17:33 3.70587 80.80606 33895 ft 497 kts 272°
2026-04-27 17:34 3.70938 80.73697 33893 ft 497 kts 272°
2026-04-27 17:34 3.71295 80.66786 33893 ft 497 kts 272°
2026-04-27 17:35 3.71657 80.59910 33896 ft 497 kts 272°
2026-04-27 17:35 3.72026 80.52998 33897 ft 497 kts 272°
2026-04-27 17:36 3.72386 80.46094 33901 ft 496 kts 272°
2026-04-27 17:36 3.72739 80.39194 33903 ft 496 kts 272°
2026-04-27 17:37 3.73092 80.32301 33902 ft 495 kts 272°
2026-04-27 17:37 3.73454 80.25413 33899 ft 496 kts 272°
2026-04-27 17:38 3.73815 80.18521 33903 ft 496 kts 272°
2026-04-27 17:38 3.74168 80.11637 33904 ft 494 kts 272°
2026-04-27 17:39 3.74518 80.04764 33904 ft 494 kts 272°
2026-04-27 17:39 3.74867 79.97943 33903 ft 493 kts 272°
2026-04-27 17:40 3.75218 79.91076 33903 ft 493 kts 272°
2026-04-27 17:40 3.75572 79.84215 33906 ft 493 kts 272°
2026-04-27 17:41 3.75924 79.77363 33895 ft 493 kts 272°
2026-04-27 17:41 3.76276 79.70503 33883 ft 493 kts 272°
2026-04-27 17:42 3.76626 79.63647 33874 ft 493 kts 272°
2026-04-27 17:42 3.76979 79.56782 33876 ft 494 kts 272°
2026-04-27 17:43 3.77330 79.49910 33879 ft 494 kts 272°
2026-04-27 17:43 3.77681 79.43040 33882 ft 494 kts 272°
2026-04-27 17:44 3.78031 79.36199 33882 ft 495 kts 272°
2026-04-27 17:44 3.78370 79.29323 33884 ft 495 kts 272°
2026-04-27 17:45 3.78708 79.22433 33886 ft 495 kts 272°
2026-04-27 17:45 3.79063 79.15545 33888 ft 495 kts 272°
2026-04-27 17:46 3.79420 79.08652 33889 ft 495 kts 272°
2026-04-27 17:46 3.79767 79.01765 33897 ft 495 kts 272°
2026-04-27 17:47 3.80112 78.94870 33900 ft 494 kts 272°
2026-04-27 17:47 3.80456 78.87999 33900 ft 494 kts 272°
2026-04-27 17:48 3.80807 78.81135 33896 ft 494 kts 272°
2026-04-27 17:48 3.81146 78.74312 33895 ft 493 kts 272°
2026-04-27 17:49 3.81488 78.67448 33893 ft 493 kts 272°
2026-04-27 17:49 3.81826 78.60584 33891 ft 493 kts 272°
2026-04-27 17:50 3.82170 78.53714 33887 ft 494 kts 272°
2026-04-27 17:50 3.82684 78.43414 33888 ft 494 kts 272°
2026-04-27 17:51 3.83026 78.36545 33887 ft 494 kts 272°
2026-04-27 17:51 3.83368 78.29679 33887 ft 494 kts 272°
2026-04-27 17:52 3.83703 78.22810 33885 ft 494 kts 272°
2026-04-27 17:52 3.84035 78.15943 33886 ft 494 kts 272°
2026-04-27 17:53 3.84376 78.09109 33889 ft 494 kts 272°
2026-04-27 17:53 3.84720 78.02240 33889 ft 494 kts 272°
2026-04-27 17:54 3.85123 77.95375 33889 ft 494 kts 273°
2026-04-27 17:54 3.85733 77.88510 33884 ft 495 kts 274°
2026-04-27 17:55 3.86386 77.81651 33883 ft 495 kts 274°
2026-04-27 17:55 3.86984 77.74773 33883 ft 495 kts 274°
2026-04-27 17:56 3.87546 77.67900 33885 ft 496 kts 274°
2026-04-27 17:56 3.88114 77.61016 33875 ft 497 kts 274°
2026-04-27 17:57 3.88696 77.54121 33867 ft 498 kts 274°
2026-04-27 17:57 3.89280 77.47220 33870 ft 498 kts 274°
2026-04-27 17:58 3.89858 77.40303 33874 ft 499 kts 274°
2026-04-27 17:58 3.90424 77.33419 33878 ft 499 kts 274°
2026-04-27 17:59 3.90993 77.26494 33881 ft 499 kts 274°
2026-04-27 17:59 3.91533 77.19566 33886 ft 499 kts 274°
2026-04-27 18:00 3.92061 77.12637 33887 ft 499 kts 274°
2026-04-27 18:00 3.92592 77.05711 33890 ft 499 kts 274°
2026-04-27 18:01 3.93132 76.98781 33887 ft 499 kts 274°
2026-04-27 18:01 3.93677 76.91851 33887 ft 499 kts 274°
2026-04-27 18:02 3.94216 76.84952 33886 ft 498 kts 274°
2026-04-27 18:02 3.94755 76.78055 33897 ft 497 kts 274°
2026-04-27 18:03 3.95293 76.71152 33898 ft 496 kts 273°
2026-04-27 18:03 3.95818 76.64260 33896 ft 496 kts 273°
2026-04-27 18:04 3.96339 76.57423 33896 ft 495 kts 273°
2026-04-27 18:04 3.96875 76.50550 33893 ft 495 kts 274°
2026-04-27 18:05 3.97417 76.43670 33894 ft 495 kts 273°
2026-04-27 18:05 3.97947 76.36795 33892 ft 495 kts 273°
2026-04-27 18:06 3.98466 76.29922 33891 ft 494 kts 273°
2026-04-27 18:06 3.98586 76.23048 33889 ft 493 kts 268°
2026-04-27 18:07 3.98487 76.16179 33887 ft 493 kts 268°
2026-04-27 18:07 3.98388 76.09348 33884 ft 493 kts 268°
2026-04-27 18:08 3.98294 76.02462 33887 ft 493 kts 268°
2026-04-27 18:08 3.98190 75.95594 33887 ft 493 kts 268°
2026-04-27 18:09 3.98091 75.88721 33884 ft 493 kts 268°
2026-04-27 18:09 3.97996 75.81851 33885 ft 493 kts 268°
2026-04-27 18:10 3.97896 75.75021 33886 ft 493 kts 268°
2026-04-27 18:10 3.97793 75.68144 33886 ft 493 kts 268°
2026-04-27 18:11 3.97688 75.61345 35425 ft 493 kts 269°
2026-04-27 18:11 3.97636 75.57929 34018 ft 486 kts 267°
2026-04-27 18:11 3.97586 75.54552 34159 ft 486 kts 268°
2026-04-27 18:12 3.97534 75.51140 33918 ft 491 kts 268°
2026-04-27 18:12 3.97478 75.47738 33427 ft 484 kts 268°
2026-04-27 18:12 3.97431 75.44449 33131 ft 472 kts 268°
2026-04-27 18:12 3.97387 75.41223 32880 ft 460 kts 267°
2026-04-27 18:13 3.97343 75.38061 32628 ft 449 kts 267°
2026-04-27 18:13 3.97295 75.34972 32382 ft 440 kts 267°
2026-04-27 18:13 3.97244 75.31926 32138 ft 435 kts 267°
2026-04-27 18:13 3.97194 75.28904 31897 ft 433 kts 267°
2026-04-27 18:14 3.97147 75.25955 31662 ft 431 kts 268°
2026-04-27 18:14 3.97106 75.22961 31425 ft 429 kts 268°
2026-04-27 18:14 3.97064 75.19974 31189 ft 427 kts 268°
2026-04-27 18:14 3.97019 75.17008 30959 ft 426 kts 268°
2026-04-27 18:15 3.96969 75.14058 30729 ft 424 kts 268°
2026-04-27 18:15 3.96919 75.11126 30501 ft 423 kts 268°
2026-04-27 18:15 3.96870 75.08186 30274 ft 421 kts 268°
2026-04-27 18:15 3.96839 75.06246 30129 ft 420 kts 268°
2026-04-27 18:16 3.96776 75.02375 29814 ft 419 kts 268°
2026-04-27 18:16 3.96744 75.00411 29632 ft 418 kts 268°
2026-04-27 18:16 3.96681 74.96570 29282 ft 415 kts 268°
2026-04-27 18:16 3.96637 74.93688 28999 ft 411 kts 268°
2026-04-27 18:17 3.96598 74.90828 28548 ft 408 kts 268°
2026-04-27 18:17 3.96573 74.88914 28248 ft 406 kts 268°
2026-04-27 18:17 3.96532 74.86096 27804 ft 403 kts 268°
2026-04-27 18:17 3.96479 74.82392 27208 ft 400 kts 269°
2026-04-27 18:18 3.96452 74.80546 26915 ft 399 kts 269°
2026-04-27 18:18 3.96410 74.77774 26453 ft 397 kts 269°
2026-04-27 18:18 3.96367 74.75006 25997 ft 396 kts 269°
2026-04-27 18:18 3.96322 74.72256 25527 ft 395 kts 269°
2026-04-27 18:19 3.96276 74.69510 25053 ft 394 kts 269°
2026-04-27 18:19 3.96228 74.66764 24565 ft 394 kts 270°
2026-04-27 18:19 3.96182 74.64021 24071 ft 394 kts 270°
2026-04-27 18:19 3.96139 74.61278 23573 ft 395 kts 270°
2026-04-27 18:20 3.96097 74.58523 23013 ft 395 kts 270°
2026-04-27 18:20 3.96056 74.55774 22511 ft 394 kts 270°
2026-04-27 18:20 3.96017 74.53039 22018 ft 392 kts 270°
2026-04-27 18:20 3.95975 74.50314 21531 ft 391 kts 270°
2026-04-27 18:21 3.95929 74.47599 21053 ft 389 kts 270°
2026-04-27 18:21 3.95879 74.44886 20570 ft 388 kts 270°
2026-04-27 18:21 3.95829 74.42187 20092 ft 387 kts 270°
2026-04-27 18:21 3.95783 74.39531 19624 ft 386 kts 270°
2026-04-27 18:22 3.95740 74.36843 19184 ft 385 kts 270°
2026-04-27 18:22 3.95698 74.34174 18712 ft 384 kts 270°
2026-04-27 18:22 3.95654 74.31515 18411 ft 379 kts 270°
2026-04-27 18:22 3.95610 74.28883 17973 ft 377 kts 270°
2026-04-27 18:23 3.95567 74.26260 17515 ft 375 kts 270°
2026-04-27 18:23 3.95525 74.23659 17088 ft 373 kts 270°
2026-04-27 18:23 3.95485 74.21072 16674 ft 370 kts 269°
2026-04-27 18:23 3.95444 74.18507 16271 ft 367 kts 269°
2026-04-27 18:24 3.95402 74.15958 15877 ft 365 kts 269°
2026-04-27 18:24 3.95359 74.13424 15493 ft 363 kts 269°
2026-04-27 18:24 3.95314 74.10906 15112 ft 360 kts 269°
2026-04-27 18:24 3.95270 74.08401 14735 ft 358 kts 269°
2026-04-27 18:25 3.95225 74.05917 14361 ft 356 kts 269°
2026-04-27 18:25 3.95182 74.03446 13995 ft 353 kts 269°
2026-04-27 18:25 3.95139 74.00994 13621 ft 351 kts 269°
2026-04-27 18:25 3.95098 73.98589 13217 ft 349 kts 269°
2026-04-27 18:26 3.95058 73.96166 12812 ft 346 kts 269°
2026-04-27 18:26 3.95018 73.93765 12416 ft 344 kts 269°
2026-04-27 18:26 3.94979 73.91378 12016 ft 341 kts 269°
2026-04-27 18:26 3.94940 73.89012 11622 ft 338 kts 269°
2026-04-27 18:27 3.94907 73.86664 11222 ft 336 kts 270°
2026-04-27 18:27 3.94897 73.84347 11022 ft 327 kts 270°
2026-04-27 18:27 3.94900 73.82110 10869 ft 317 kts 271°
2026-04-27 18:27 3.94907 73.79915 10589 ft 313 kts 271°
2026-04-27 18:28 3.94916 73.77748 10268 ft 310 kts 271°
2026-04-27 18:28 3.94925 73.75591 9920 ft 308 kts 271°
2026-04-27 18:28 3.94929 73.73445 9563 ft 306 kts 271°
2026-04-27 18:28 3.94930 73.71321 9174 ft 305 kts 271°
2026-04-27 18:29 3.94927 73.69234 8803 ft 302 kts 271°
2026-04-27 18:29 3.94923 73.67136 8437 ft 300 kts 271°
2026-04-27 18:29 3.94919 73.65053 8047 ft 298 kts 270°
2026-04-27 18:29 3.94918 73.62987 7693 ft 295 kts 270°
2026-04-27 18:30 3.94915 73.60941 7309 ft 291 kts 271°
2026-04-27 18:30 3.94912 73.58918 6599 ft 290 kts 270°
2026-04-27 18:30 3.94909 73.56898 5865 ft 290 kts 270°
2026-04-27 18:30 3.95075 73.54903 5112 ft 286 kts 289°
2026-04-27 18:31 3.96154 73.53308 4590 ft 274 kts 323°
2026-04-27 18:31 3.97865 73.52599 4118 ft 263 kts 352°
2026-04-27 18:31 3.99644 73.52533 3719 ft 251 kts
2026-04-27 18:31 4.01301 73.53005 3270 ft 243 kts 18°
2026-04-27 18:32 4.02889 73.53225 2971 ft 228 kts 354°
2026-04-27 18:32 4.04436 73.53139 2683 ft 219 kts 357°
2026-04-27 18:32 4.05883 73.53117 2414 ft 207 kts 358°
2026-04-27 18:32 4.07301 73.53113 2170 ft 198 kts 358°
2026-04-27 18:33 4.08636 73.53113 1924 ft 187 kts 357°
2026-04-27 18:33 4.09895 73.53112 1679 ft 174 kts 357°
2026-04-27 18:33 4.11042 73.53111 1470 ft 156 kts 357°
2026-04-27 18:33 4.12093 73.53110 1273 ft 147 kts 357°
2026-04-27 18:34 4.13108 73.53108 1080 ft 145 kts 358°
2026-04-27 18:34 4.14117 73.53107 907 ft 145 kts 357°
2026-04-27 18:34 4.15128 73.53105 728 ft 146 kts 356°
2026-04-27 18:34 4.16134 73.53104 537 ft 144 kts 359°
2026-04-27 18:35 4.17130 73.53106 319 ft 142 kts 358°
2026-04-27 18:35 4.18125 73.53104 136 ft 142 kts 359°
2026-04-27 18:35 4.19088 73.53101 16 ft 127 kts 358°
2026-04-27 18:35 4.19717 73.53102 13 ft 49 kts 360°
2026-04-27 18:36 4.20035 73.53101 12 ft 44 kts
2026-04-27 18:36 4.20290 73.53101 12 ft 16 kts
2026-04-27 18:36 4.20368 73.53075 12 ft 12 kts 293°
2026-04-27 18:36 4.20368 73.52988 12 ft 13 kts 270°
2026-04-27 18:37 4.20359 73.52910 12 ft 9 kts 233°
2026-04-27 18:37 4.20303 73.52896 12 ft 8 kts 179°
2026-04-27 18:37 4.20238 73.52898 12 ft 15 kts 179°
2026-04-27 18:37 4.20107 73.52900 12 ft 20 kts 179°
2026-04-27 18:38 4.19963 73.52903 12 ft 22 kts 178°
2026-04-27 18:38 4.19805 73.52905 12 ft 23 kts 180°
2026-04-27 18:38 4.19644 73.52908 12 ft 23 kts 179°
2026-04-27 18:38 4.19477 73.52910 12 ft 25 kts 179°
2026-04-27 18:39 4.19300 73.52913 12 ft 26 kts 179°
2026-04-27 18:39 4.19142 73.52916 12 ft 17 kts 179°
2026-04-27 18:39 4.19022 73.52918 12 ft 18 kts 179°
2026-04-27 18:39 4.18897 73.52920 12 ft 19 kts 178°
2026-04-27 18:40 4.18761 73.52922 12 ft 19 kts 179°
2026-04-27 18:40 4.18704 73.52919 12 ft 6 kts 197°
2026-04-27 18:40 4.18687 73.52889 12 ft 5 kts 271°
2026-04-27 18:40 4.18678 73.52865 12 ft 3 kts 231°
2026-04-27 18:41 4.18660 73.52856 12 ft 4 kts 197°
2026-04-27 18:41 4.18621 73.52856 12 ft 6 kts 180°
2026-04-27 18:41 4.18571 73.52856 12 ft 12 kts 179°
2026-04-27 18:41 4.18450 73.52858 12 ft 19 kts 179°
2026-04-27 18:42 4.18309 73.52860 12 ft 21 kts 179°
2026-04-27 18:42 4.18223 73.52862 12 ft 18 kts 179°
2026-04-27 18:42 4.18059 73.52865 13 ft 18 kts 179°
2026-04-27 18:42 4.17986 73.52865 13 ft 4 kts 188°
2026-04-27 18:43 4.17976 73.52848 13 ft 2 kts 256°
2026-04-27 18:43 4.17974 73.52836 13 ft 2 kts 262°
2026-04-27 18:43 4.17974 73.52808 12 ft 4 kts 270°
2026-04-27 18:43 4.17974 73.52784 12 ft 3 kts 269°
2026-04-27 18:44 4.17973 73.52769 12 ft 2 kts 269°
2026-04-27 18:44 4.17973 73.52764 12 ft 0 kts 269°